• In Russia
  • List of Countries
  • For 7 days
  • Water Temperature
  • Satellite Maps
  • Weather Map
  • Weather Widgets
  • user-avatar
    Login

    Hourly Weather Egilsstaðir

    Today, 21 May, Tuesday

    Time Temperature Precipitation Wind Pressure Humidity
    00:00 +8°C° 0 mm 1 mps 670 mmHg 84%
    01:00 +8°C° 0 mm 1 mps 670 mmHg 86%
    02:00 +8°C° 0 mm 1 mps 670 mmHg 86%
    03:00 +8°C° 0 mm 1 mps 670 mmHg 85%
    04:00 +8°C° 0 mm 1 mps 670 mmHg 85%
    05:00 +9°C° 0 mm 1 mps 670 mmHg 82%
    06:00 +10°C° 0 mm 1 mps 670 mmHg 79%
    07:00 +11°C° 0 mm 1 mps 671 mmHg 75%
    08:00 +12°C° 0 mm 1 mps 671 mmHg 71%
    09:00 +13°C° 0 mm 1 mps 671 mmHg 67%
    10:00 +14°C° 0 mm 2 mps 671 mmHg 62%
    11:00 +14°C° 0.1 mm 2 mps 671 mmHg 60%
    12:00 +14°C° 0.1 mm 2 mps 671 mmHg 58%
    13:00 +15°C° 0.1 mm 2 mps 671 mmHg 56%
    14:00 +15°C° 0 mm 2 mps 671 mmHg 54%
    15:00 +16°C° 0 mm 1 mps 671 mmHg 51%
    16:00 +16°C° 0 mm 1 mps 671 mmHg 49%
    17:00 +16°C° 0 mm 1 mps 671 mmHg 49%
    18:00 +16°C° 0 mm 1 mps 671 mmHg 49%
    19:00 +16°C° 0 mm 2 mps 671 mmHg 50%
    20:00 +15°C° 0.1 mm 2 mps 671 mmHg 58%
    21:00 +13°C° 0.1 mm 2 mps 670 mmHg 66%
    22:00 +12°C° 0.1 mm 2 mps 670 mmHg 74%
    23:00 +10°C° 0 mm 2 mps 670 mmHg 79%

    Tomorrow, 22 May, Wednesday

    Time Temperature Precipitation Wind Pressure Humidity
    00:00 +11°C° 0 mm 1 mps 670 mmHg 83%
    01:00 +10°C° 0 mm 1 mps 670 mmHg 87%
    02:00 +10°C° 0 mm 1 mps 670 mmHg 88%
    03:00 +10°C° 0 mm 1 mps 669 mmHg 89%
    04:00 +10°C° 0 mm 1 mps 669 mmHg 91%
    05:00 +9°C° 0.2 mm 2 mps 669 mmHg 87%
    06:00 +10°C° 0.2 mm 2 mps 669 mmHg 84%
    07:00 +12°C° 0.2 mm 2 mps 670 mmHg 81%
    08:00 +11°C° 0.3 mm 3 mps 670 mmHg 78%
    09:00 +12°C° 0.3 mm 3 mps 670 mmHg 75%
    10:00 +12°C° 0.3 mm 3 mps 670 mmHg 73%
    11:00 +13°C° 0.5 mm 3 mps 669 mmHg 68%
    12:00 +14°C° 0.5 mm 4 mps 669 mmHg 63%
    13:00 +15°C° 0.5 mm 4 mps 669 mmHg 59%
    14:00 +16°C° 0.9 mm 3 mps 669 mmHg 59%
    15:00 +16°C° 0.9 mm 3 mps 669 mmHg 59%
    16:00 +16°C° 0.9 mm 3 mps 669 mmHg 59%
    17:00 +16°C° 0.9 mm 3 mps 669 mmHg 62%
    18:00 +14°C° 0.9 mm 3 mps 669 mmHg 65%
    19:00 +14°C° 0.9 mm 3 mps 668 mmHg 68%
    20:00 +12°C° 1 mm 3 mps 668 mmHg 74%
    21:00 +11°C° 1 mm 3 mps 668 mmHg 80%
    22:00 +10°C° 1 mm 3 mps 668 mmHg 87%
    23:00 +10°C° 0.4 mm 3 mps 668 mmHg 88%

    Day after tomorrow, 23 May, Thursday

    Time Temperature Precipitation Wind Pressure Humidity
    00:00 +9°C° 0.4 mm 3 mps 668 mmHg 90%
    01:00 +8°C° 0.4 mm 3 mps 668 mmHg 92%
    02:00 +8°C° 0.4 mm 3 mps 667 mmHg 91%
    03:00 +7°C° 0.4 mm 3 mps 667 mmHg 91%
    04:00 +5°C° 0.4 mm 3 mps 667 mmHg 91%
    05:00 +5°C° 1.5 mm 3 mps 667 mmHg 91%
    06:00 +4°C° 1.5 mm 3 mps 667 mmHg 91%
    07:00 +4°C° 1.5 mm 3 mps 667 mmHg 91%
    08:00 +4°C° 1.5 mm 3 mps 667 mmHg 90%
    09:00 +4°C° 1.5 mm 3 mps 667 mmHg 90%
    10:00 +3°C° 1.5 mm 3 mps 666 mmHg 89%
    11:00 +3°C° 1 mm 3 mps 666 mmHg 89%
    12:00 +3°C° 1 mm 3 mps 666 mmHg 89%
    13:00 +3°C° 1 mm 3 mps 666 mmHg 88%
    14:00 +3°C° 1 mm 3 mps 666 mmHg 88%
    15:00 +2°C° 1 mm 3 mps 666 mmHg 89%
    16:00 +2°C° 1 mm 3 mps 665 mmHg 89%
    17:00 +2°C° 1.7 mm 3 mps 665 mmHg 89%
    18:00 +2°C° 1.7 mm 3 mps 665 mmHg 90%
    19:00 +1°C° 1.7 mm 3 mps 664 mmHg 90%
    20:00 +1°C° 2.2 mm 3 mps 664 mmHg 91%
    21:00 +1°C° 2.2 mm 3 mps 664 mmHg 91%
    22:00 +1°C° 2.2 mm 3 mps 664 mmHg 91%
    23:00 +1°C° 2 mm 3 mps 664 mmHg 92%

    24 May, Friday

    Time Temperature Precipitation Wind Pressure Humidity
    00:00 +1°C° 2 mm 2 mps 664 mmHg 92%
    01:00 +1°C° 2 mm 2 mps 663 mmHg 93%
    02:00 +1°C° 1 mm 2 mps 663 mmHg 93%
    03:00 +1°C° 1 mm 2 mps 663 mmHg 94%
    04:00 +1°C° 1 mm 2 mps 663 mmHg 94%
    05:00 +1°C° 1.1 mm 2 mps 663 mmHg 94%
    06:00 +1°C° 1.1 mm 2 mps 662 mmHg 95%
    07:00 +1°C° 1.1 mm 2 mps 662 mmHg 95%
    08:00 +1°C° 0.9 mm 2 mps 662 mmHg 94%
    09:00 +1°C° 0.9 mm 2 mps 663 mmHg 94%
    10:00 +1°C° 0.9 mm 2 mps 663 mmHg 94%
    11:00 +1°C° 0.4 mm 2 mps 663 mmHg 93%
    12:00 +1°C° 0.4 mm 2 mps 663 mmHg 93%
    13:00 +2°C° 0.4 mm 2 mps 663 mmHg 92%
    14:00 +2°C° 0.1 mm 2 mps 663 mmHg 92%
    15:00 +2°C° 0.1 mm 2 mps 663 mmHg 91%
    16:00 +2°C° 0.1 mm 2 mps 663 mmHg 91%
    17:00 +3°C° 0.2 mm 1 mps 663 mmHg 91%
    18:00 +3°C° 0.2 mm 1 mps 663 mmHg 92%
    19:00 +3°C° 0.2 mm 1 mps 663 mmHg 93%
    20:00 +2°C° 0.5 mm 1 mps 663 mmHg 94%
    21:00 +2°C° 0.5 mm 1 mps 663 mmHg 95%
    22:00 +2°C° 0.5 mm 1 mps 663 mmHg 96%
    23:00 +2°C° 0.4 mm 1 mps 663 mmHg 96%

    25 May, Saturday

    Time Temperature Precipitation Wind Pressure Humidity
    00:00 +2°C° 0.4 mm 1 mps 663 mmHg 96%
    01:00 +1°C° 0.4 mm 1 mps 662 mmHg 97%
    02:00 +1°C° 0.2 mm 1 mps 662 mmHg 97%
    03:00 +1°C° 0.2 mm 1 mps 662 mmHg 96%
    04:00 +1°C° 0.2 mm 1 mps 662 mmHg 96%
    05:00 +1°C° 0.1 mm 1 mps 662 mmHg 95%
    06:00 +2°C° 0.1 mm 1 mps 662 mmHg 93%
    07:00 +2°C° 0.1 mm 1 mps 662 mmHg 92%
    08:00 +2°C° 0 mm 1 mps 662 mmHg 89%
    09:00 +3°C° 0 mm 1 mps 663 mmHg 86%
    10:00 +3°C° 0 mm 1 mps 663 mmHg 83%
    11:00 +4°C° 0 mm 1 mps 663 mmHg 81%
    12:00 +3°C° 0 mm 2 mps 663 mmHg 79%
    13:00 +4°C° 0 mm 2 mps 663 mmHg 77%
    14:00 +4°C° 0 mm 2 mps 663 mmHg 75%
    15:00 +5°C° 0 mm 1 mps 663 mmHg 73%
    16:00 +6°C° 0 mm 1 mps 663 mmHg 72%
    17:00 +6°C° 0 mm 1 mps 662 mmHg 71%
    18:00 +6°C° 0 mm 1 mps 662 mmHg 71%
    19:00 +6°C° 0 mm 1 mps 662 mmHg 70%
    20:00 +5°C° 0 mm 1 mps 662 mmHg 74%
    21:00 +4°C° 0 mm 1 mps 662 mmHg 78%
    22:00 +2°C° 0 mm 0 mps 661 mmHg 82%
    23:00 +1°C° 0 mm 0 mps 661 mmHg 84%

    26 May, Sunday

    Time Temperature Precipitation Wind Pressure Humidity
    00:00 +1°C° 0 mm 0 mps 661 mmHg 85%
    01:00 0°C° 0 mm 0 mps 661 mmHg 87%
    02:00 0°C° 0 mm 0 mps 661 mmHg 86%
    03:00 +1°C° 0 mm 0 mps 661 mmHg 86%
    04:00 +1°C° 0 mm 0 mps 661 mmHg 85%
    05:00 +2°C° 0 mm 0 mps 661 mmHg 81%
    06:00 +4°C° 0 mm 1 mps 661 mmHg 77%
    07:00 +5°C° 0 mm 1 mps 661 mmHg 73%
    08:00 +5°C° 0 mm 1 mps 661 mmHg 68%
    09:00 +5°C° 0 mm 2 mps 661 mmHg 63%
    10:00 +6°C° 0 mm 2 mps 661 mmHg 58%
    11:00 +7°C° 0 mm 2 mps 661 mmHg 56%
    12:00 +7°C° 0 mm 2 mps 661 mmHg 53%
    13:00 +8°C° 0 mm 3 mps 661 mmHg 50%
    14:00 +8°C° 0 mm 3 mps 661 mmHg 49%
    15:00 +7°C° 0 mm 4 mps 660 mmHg 48%
    16:00 +7°C° 0 mm 4 mps 660 mmHg 47%
    17:00 +7°C° 0 mm 4 mps 660 mmHg 48%
    18:00 +7°C° 0 mm 5 mps 660 mmHg 49%
    19:00 +7°C° 0 mm 5 mps 660 mmHg 50%
    20:00 +6°C° 0 mm 4 mps 660 mmHg 56%
    21:00 +5°C° 0 mm 4 mps 659 mmHg 62%
    22:00 +4°C° 0 mm 4 mps 659 mmHg 67%
    23:00 +4°C° 0.4 mm 3 mps 659 mmHg 71%
    Show more